Location: Unspecified
(42.9300°N, 71.1866°W)
Time: 03:21:44
(UTC-04:00)

Envisat - Visible Passes

Search period start: 30 August 2016 00:00
Search period end: 09 September 2016 00:00
Orbit: 764 x 766 km, 98.3° (Epoch: 29 August)

Date Brightness Start Highest point End Pass type
(mag) Time Alt. Az. Time Alt. Az. Time Alt. Az.
30 Aug 4.1 20:09:25 11° ESE 20:13:17 26° ENE 20:17:27 10° N visible
30 Aug 4.1 21:49:39 25° SSW 21:52:05 40° W 21:56:52 10° NNW visible
31 Aug 2.9 21:12:39 29° SSE 21:15:19 88° W 21:20:26 10° NNW visible
31 Aug 5.7 22:54:30 10° W 22:55:02 10° W 22:55:35 10° W visible
01 Sep 3.4 20:35:39 20° SE 20:38:45 43° ENE 20:43:33 10° N visible
01 Sep 4.9 22:15:52 18° SW 22:17:55 23° W 22:21:58 10° NW visible
02 Sep 4.4 19:58:39 10° ESE 20:02:23 21° ENE 20:06:09 10° NNE visible
02 Sep 3.7 21:38:52 31° SSW 21:41:02 51° W 21:45:59 10° NNW visible
03 Sep 2.9 21:01:53 31° SSE 21:04:19 74° ENE 21:09:24 10° N visible
03 Sep 5.5 22:42:05 11° WSW 22:43:52 13° W 22:46:18 10° WNW visible
04 Sep 3.7 20:24:53 19° ESE 20:27:48 35° ENE 20:32:23 10° N visible
04 Sep 4.6 22:05:06 24° SW 22:06:50 29° W 22:11:15 10° NW visible
05 Sep 4.6 19:48:15 10° ESE 19:51:30 17° ENE 19:54:45 10° NNE visible
05 Sep 3.3 21:28:07 38° SSW 21:29:59 64° WSW 21:35:03 10° NNW visible
06 Sep 3.0 20:51:08 32° SE 20:53:20 59° ENE 20:58:20 10° N visible
06 Sep 5.2 22:31:21 15° WSW 22:32:44 17° W 22:36:00 10° NW visible
07 Sep 4.0 20:14:08 18° ESE 20:16:53 28° ENE 20:21:10 10° N visible
07 Sep 4.2 21:54:22 31° SW 21:55:44 36° W 22:00:26 10° NNW visible
08 Sep 4.8 19:38:02 10° E 19:40:37 14° ENE 19:43:12 10° NNE visible
08 Sep 3.0 21:17:22 45° S 21:18:57 81° WSW 21:24:04 10° NNW visible
